DELTA 1 DEB, 10844

Orbit data source: Space-Track

DELTA 1 DEB, 10844 is space debris in SSO originally from a launch on Thu, 29 Jul 1976 UTC launched from the Air Force Western Test Range (AFWTR). Debris objects in space refer to the collection of defunct objects orbiting the Earth. Examples of debris include non-operational satellites, rocket bodies, and fragments generated from explosions, collisions, or faulty payload assembly.

Loading next visibility...
Identifier
10844, 1976-077CQ
Orbit
SSO
Country
Flag of USUS
Related business
Manufacturer
Unknown
Mission
Spacecraft
Bus & Motor
Unknown
Mass
Unknown
Launch date (UTC)
1976-07-29 (50 years ago)
Launch vehicle
Unknown
Launch site
Air Force Western Test Range (AFWTR)
Object type
Payload
Rocket body
Debris
Shape & HBR
Unknown shape, 0.1 m
Radar Cross Section
Small (<0.1 m²)

Expand to show TLE details & history
Last TLE update: 9 hours ago

TLE from 9 hours ago
0 DELTA 1 DEB
1 10844U 76077CQ  26034.03081759  .00005281  00000-0  51463-2 0  9999
2 10844 101.2139  61.5862 0122244 207.8749 181.7122 13.76647236392489
Epoch: 2026-02-03T00:44Z
TLE epoch observation values (Epoch: 2026-02-03T00:44:22.639Z)
Latitude
28.9747°
Longitude
-88.99601°
Altitude
1,069.129 km
Speed
7.275 km/s
True Right ascension
03h 41m 15s
True Declination
28° 50' 07"
Sunlit
Object was in daylight at epoch
Visualization orbit readout
Latitude
Unknown
Longitude
Unknown
Altitude
Unknown
Speed
Unknown
Apparent Right ascension
Unknown
Apparent Declination
Unknown
Sunlit
N/A
Visualization observer readout
Local Sidereal Time
11:42:58
Azimuth
Unknown
Elevation
Unknown
Doppler factor
Unknown
Orbital elements
Apogee altitude
1,063.018 km
Perigee altitude
883.288 km
Semi-major axis
7,351.29 km
Eccentricity
0.01222
Inclination
101.2139°
RAAN
61.5862°
Arg. of periapsis
207.8749°
True anomaly
181.67098°
Mean anomaly
181.7122°
Eccentric anomaly
181.69153°
Mean motion
3.44348 °/min
Orbital period
104.55 mins
BSTAR
0.0051463
Loading maneuver chart data...
Computing Atmospheric mass density...
Loading historical data...
Loading historical data...
Loading historical data...
Loading historical data...
Loading historical data...
Loading historical data...
Loading historical data...

Documentation

Showing up to 5 results
|